Location: Kitt Peak
(31.9514°N, 111.6156°W)
Time: 16:53:11
(UTC-07:00)

ISS - Visible Passes

Search period start: 09 May 2021 00:00
Search period end: 19 May 2021 00:00
Orbit: 417 x 421 km, 51.6° (Epoch: 09 May)

Date Brightness Start Highest point End Pass type
(mag) Time Alt. Az. Time Alt. Az. Time Alt. Az.
10 May -0.2 04:50:47 10° NNE 04:51:16 10° NNE 04:51:46 10° NE visible
12 May -1.2 04:50:42 10° NNW 04:53:33 25° NE 04:56:24 10° E visible
13 May -0.6 04:03:49 10° N 04:05:58 16° NE 04:08:07 10° ENE visible
13 May -3.9 20:42:39 10° SSW 20:45:56 60° SE 20:46:50 41° ENE visible
14 May -0.1 03:17:45 10° NNE 03:18:19 10° NNE 03:18:53 10° NE visible
14 May -3.7 04:52:11 10° NW 04:55:33 88° NE 04:58:54 10° SE visible
14 May -2.9 19:55:39 10° SSW 19:58:35 29° SE 20:01:32 10° ENE visible
14 May -1.1 21:32:49 10° W 21:35:23 20° NW 21:38:00 10° NNE visible
15 May -2.5 04:04:52 10° NNW 04:08:06 44° NE 04:11:20 10° ESE visible
15 May -2.0 20:44:46 10° WSW 20:47:51 34° NW 20:50:57 10° NNE visible
16 May -1.4 03:17:43 10° NNW 03:20:35 25° NE 03:23:26 10° E visible
16 May -2.5 04:54:35 10° WNW 04:57:17 23° SW 04:59:59 10° S visible
16 May -3.3 19:57:03 10° SW 20:00:22 66° NW 20:03:41 10° NE visible
17 May -0.6 02:33:43 15° NE 02:33:43 15° NE 02:35:08 10° ENE visible
17 May -3.5 04:07:13 13° WNW 04:09:57 44° SW 04:13:10 10° SSE visible
17 May -0.4 20:48:21 10° WNW 20:50:01 13° NNW 20:51:41 10° N visible
18 May -0.8 19:59:49 10° W 20:02:23 20° NW 20:04:59 10° NNE visible
